Theta_e
330 329 325 316 310 310 307 311 317 314 313 319 319 317 316 319 317 317 341 343 347 345 355 358 363 366 366 366 365 364 363 362 363 363 363 362 362 362 362 361 360 356 352 349 345 342 341 339 337
323 325 321 313 308 305 308 315 313 315 316 318 317 317 315 316 329 334 337 343 348 347 354 355 362 364 366 365 365 364 363 363 362 362 362 362 362 362 361 360 358 355 351 347 343 341 339 339 338
324 327 313 309 308 306 309 313 314 316 316 316 315 319 317 320 329 334 343 344 349 347 352 357 362 363 365 365 365 364 363 363 363 362 362 362 362 362 361 360 358 355 350 346 343 340 340 339 338
322 321 316 305 305 310 313 317 315 313 315 317 316 314 320 328 328 335 343 344 349 345 347 358 360 362 363 365 364 364 364 363 363 363 362 362 362 361 360 360 358 356 351 346 345 343 342 340 339
320 315 306 303 304 310 315 317 316 312 314 315 317 314 319 327 330 335 343 343 343 347 345 356 360 361 363 364 364 363 364 363 363 363 363 362 362 361 359 359 358 356 353 350 348 346 346 345 344
312 313 303 301 304 309 313 317 319 313 314 315 314 316 319 327 326 333 344 344 344 348 349 357 359 360 361 362 362 362 362 362 362 362 362 362 361 360 359 358 357 356 354 352 350 348 348 346 346
309 308 304 304 305 307 310 317 315 315 315 314 319 315 321 323 326 332 344 344 343 348 355 357 355 359 360 360 360 360 360 361 361 361 361 360 360 359 358 357 357 356 355 354 352 350 349 348 347
311 309 304 306 305 306 311 313 314 315 315 320 321 314 316 322 327 329 342 340 340 344 356 354 352 353 355 357 360 359 359 359 359 359 359 359 358 357 357 356 356 355 355 354 353 351 349 349 348
313 305 301 304 305 308 315 310 314 316 316 318 319 319 322 324 324 325 334 338 337 339 354 352 347 351 351 353 357 359 359 359 359 358 359 356 353 353 353 353 354 355 355 354 353 351 350 349 348
307 303 304 309 310 309 312 313 313 310 312 314 318 322 324 323 322 322 324 336 335 337 344 349 347 349 349 346 357 354 355 355 354 353 356 354 351 351 349 352 353 355 355 354 353 352 351 348 338
307 303 306 309 312 313 312 312 314 310 308 313 316 320 321 320 321 321 322 333 335 338 340 347 349 352 348 345 357 352 352 352 352 352 354 354 349 349 350 351 348 351 353 347 348 346 344 339 336
304 307 308 309 310 310 310 314 312 313 313 318 319 322 320 318 319 318 320 326 335 337 348 348 351 354 353 348 354 353 348 351 351 352 354 355 352 353 352 348 349 348 349 346 344 341 342 339 340
305 307 308 310 310 310 311 310 312 313 318 320 319 319 319 320 320 321 321 329 331 332 336 345 352 362 361 366 365 357 347 349 350 353 354 353 355 352 355 354 352 350 349 347 346 342 345 342 343
307 307 307 308 308 309 308 309 311 315 319 317 317 317 319 319 319 322 324 328 331 333 329 334 346 359 358 361 368 363 361 357 353 352 352 356 354 359 354 355 353 349 348 345 345 345 345 344 343
306 302 305 306 307 306 309 305 307 314 318 316 316 317 317 318 320 320 324 329 329 332 333 332 333 357 360 360 362 360 359 350 356 354 360 354 357 357 356 352 349 348 347 348 348 348 348 345 347
302 303 297 303 305 306 306 298 307 313 314 312 313 314 315 318 321 321 325 327 329 331 334 330 334 340 352 358 357 357 353 355 353 352 355 358 356 357 358 352 350 347 348 347 343 343 342 343 340
300 294 297 299 305 305 304 299 306 309 310 311 313 314 313 314 319 327 322 326 330 332 335 336 338 336 339 352 354 357 357 356 353 351 349 349 353 354 354 349 346 352 346 344 344 343 343 339 343
294 295 297 297 302 304 302 302 306 308 307 309 310 313 313 313 315 320 321 324 328 330 336 336 337 340 342 337 347 355 351 353 353 353 353 348 350 350 350 347 350 350 345 344 343 343 341 342 346
299 297 296 299 304 301 301 301 303 306 307 306 309 312 312 313 316 320 321 323 324 328 331 329 334 339 340 337 330 338 345 350 353 350 351 351 352 349 349 348 345 350 345 344 344 342 341 345 346
299 296 296 300 302 301 300 299 303 305 306 308 309 309 311 313 313 317 320 322 324 330 329 328 328 334 337 339 335 334 332 334 337 342 350 351 351 352 348 347 347 344 344 346 345 341 342 342 346
297 295 295 295 299 301 299 297 299 303 306 307 309 311 312 311 312 315 317 321 323 325 325 330 331 331 331 338 337 340 335 335 334 334 334 354 351 351 350 350 349 348 345 339 339 345 345 337 345
293 299 299 297 295 290 300 289 298 301 303 305 307 308 309 310 313 314 316 319 322 323 327 331 333 333 332 334 336 336 335 331 331 332 335 340 353 350 349 349 349 347 347 341 342 345 343 344 341
295 300 298 297 295 294 294 291 295 300 299 302 305 307 309 311 311 314 315 318 319 323 324 331 334 331 332 332 334 331 330 333 334 331 332 335 338 354 352 352 350 349 346 348 342 346 346 347 342
301 297 297 297 294 287 292 291 292 296 299 303 305 306 308 309 311 313 316 317 319 319 321 327 329 332 333 332 329 332 331 330 329 329 331 332 332 334 350 353 352 351 349 348 346 343 347 347 348
298 294 286 285 286 285 294 292 295 301 303 304 304 305 308 310 311 312 313 313 315 317 321 322 325 327 330 331 330 331 330 333 332 332 330 331 330 330 334 349 352 352 351 351 350 345 348 353 349
296 294 287 281 283 286 293 288 294 302 305 306 306 307 308 308 310 311 312 314 316 317 321 323 324 326 327 328 330 333 332 329 328 330 333 333 332 334 340 344 353 353 354 352 351 350 353 354 351
295 292 298 290 291 287 290 294 299 302 302 303 303 304 305 307 309 310 311 315 315 317 321 322 324 324 326 327 329 332 332 331 328 331 333 331 335 333 334 334 338 348 354 355 353 351 352 353 352
297 299 290 290 282 280 287 288 289 297 299 301 301 302 305 308 308 310 312 315 316 318 322 323 322 322 323 326 327 326 329 330 331 332 331 332 333 336 337 336 336 337 348 352 354 352 353 352 351
295 293 294 293 291 284 282 286 298 298 301 302 302 304 305 307 308 310 311 314 315 317 316 323 323 322 323 327 326 325 326 325 327 327 327 329 333 336 336 339 338 337 339 351 353 352 351 351 350
298 295 295 289 286 289 288 288 301 302 301 304 303 305 306 308 309 309 311 312 314 315 315 317 322 319 319 321 320 322 324 324 323 322 326 329 328 332 334 336 338 338 336 347 351 351 351 350 349
Wind_Speed
17 14 6 5 7 8 14 18 22 6 10 6 12 11 9 19 16 7 10 15 23 18 16 18 20 18 15 15 16 16 16 15 14 14 13 12 12 11 10 10 9 8 8 8 7 6 6 5 4
12 17 6 6 8 12 12 18 21 4 12 13 9 8 9 6 16 18 14 12 22 18 14 14 19 19 16 14 14 14 15 14 14 13 12 11 11 11 10 8 8 7 6 5 5 5 4 5 4
14 14 7 6 10 14 16 10 12 4 11 5 3 6 9 9 15 7 14 6 21 16 14 13 17 19 17 13 11 11 13 13 13 13 12 12 11 10 10 8 8 7 5 5 4 3 3 2 3
7 7 6 10 16 21 24 13 7 7 3 6 5 4 6 13 8 9 9 6 21 19 16 18 16 19 19 16 13 11 12 12 12 13 13 12 12 10 10 9 8 7 6 5 4 3 2 2 1
8 6 11 14 17 18 22 22 8 5 8 1 5 10 8 11 11 9 7 5 10 19 16 18 16 17 19 19 16 13 13 11 11 12 13 12 11 11 10 9 8 7 6 6 6 5 4 3 3
10 10 13 14 16 19 13 21 16 7 9 9 1 8 5 15 13 8 7 11 13 18 16 16 16 15 17 18 18 15 13 13 11 11 11 11 11 10 9 9 8 7 6 6 7 7 6 6 5
12 12 17 19 19 13 14 17 13 20 19 11 19 3 11 16 11 8 4 7 9 19 18 14 14 12 13 16 17 17 14 13 12 11 10 9 9 8 8 7 7 7 6 7 7 8 8 7 7
11 12 21 19 17 22 13 12 11 18 18 19 15 4 9 13 13 12 8 3 11 16 19 15 13 14 11 11 15 15 15 14 13 12 11 9 8 8 8 7 8 8 8 8 8 8 8 8 8
20 14 14 21 23 18 17 11 14 5 14 17 17 13 12 10 15 14 4 3 9 13 18 16 15 13 12 12 11 14 15 14 13 11 11 10 6 8 9 10 11 12 10 9 9 9 8 9 9
19 17 23 20 19 19 23 20 21 11 13 17 23 14 10 15 14 16 14 7 7 13 17 17 15 13 12 11 12 10 11 8 8 9 10 7 8 7 11 12 15 15 12 11 10 9 9 7 5
22 21 22 23 23 24 21 23 9 11 16 19 21 18 5 8 11 15 14 9 9 10 9 18 13 13 12 9 9 7 6 7 7 9 8 9 6 5 6 4 7 6 9 6 9 7 6 7 6
24 25 25 24 24 26 23 23 11 13 13 13 9 13 4 6 9 13 17 12 8 14 2 14 13 12 10 7 10 10 7 8 8 9 10 7 6 5 5 4 7 8 6 8 6 6 8 10 8
24 24 22 23 24 23 24 26 13 19 17 13 14 15 9 6 6 8 12 9 10 12 17 6 9 7 4 3 2 4 10 9 9 9 10 8 7 5 4 3 5 8 6 8 7 7 6 9 10
20 21 23 21 22 21 24 26 19 22 19 12 9 10 14 11 11 4 5 9 8 6 9 13 12 7 6 3 2 3 2 4 7 6 10 11 7 5 5 5 4 4 4 5 7 5 6 5 5
18 23 19 23 17 21 24 22 26 23 15 16 19 16 15 17 15 13 7 8 6 5 7 8 10 2 4 3 3 2 4 0 3 2 7 12 8 7 5 5 5 5 4 5 2 3 4 1 3
13 17 19 20 20 21 22 23 24 22 19 19 20 16 17 19 10 18 9 10 7 8 6 8 6 10 5 3 4 3 4 2 2 3 2 6 10 6 4 3 4 5 4 5 4 4 2 4 6
15 16 20 23 23 20 23 27 22 23 20 20 19 19 12 13 8 4 12 13 7 8 4 3 4 4 8 4 4 4 5 3 4 5 5 6 7 9 5 5 5 5 5 4 4 4 5 5 4
16 21 21 22 20 22 26 26 23 17 19 21 22 13 11 10 13 10 7 11 10 7 3 6 3 2 3 4 4 5 4 4 4 5 4 7 7 9 9 7 5 6 4 4 4 5 4 5 5
20 21 22 20 18 15 12 14 15 15 22 20 12 7 8 11 10 11 11 8 6 9 8 5 7 1 3 4 3 3 3 5 3 3 7 7 6 12 9 6 9 6 5 5 4 2 6 7 7
13 17 20 19 22 17 15 14 15 19 22 18 16 14 13 12 11 10 9 7 5 2 2 7 5 3 3 2 4 1 4 2 2 4 5 8 6 6 11 12 9 10 5 5 7 8 5 9 9
17 18 19 22 19 19 16 19 18 20 21 21 17 17 17 18 18 14 14 11 8 6 5 2 6 5 1 3 4 1 4 3 3 4 5 6 10 11 11 10 10 8 8 9 11 11 12 6 5
19 16 18 16 17 14 15 16 20 20 25 26 22 15 14 14 16 17 13 10 6 6 7 4 1 1 4 4 1 1 1 2 3 6 5 5 5 12 11 12 10 11 7 12 8 8 10 11 5
17 15 17 15 17 14 19 15 16 20 20 16 13 14 12 13 13 15 10 7 6 6 5 4 4 2 3 4 3 3 3 3 3 4 7 6 5 8 13 10 9 7 9 9 12 7 11 10 8
11 14 18 16 13 16 22 20 19 19 20 19 17 16 11 10 12 11 10 11 10 9 8 6 6 5 3 2 3 5 6 5 5 4 6 7 6 6 6 9 7 9 11 13 11 11 15 12 9
16 14 12 15 15 16 17 19 17 18 8 7 13 9 9 12 10 9 7 8 10 11 9 8 8 8 6 7 6 6 6 6 6 7 6 8 5 7 7 6 8 9 12 13 12 14 15 13 10
18 15 9 8 12 14 14 9 8 11 10 11 13 12 11 11 11 9 12 7 3 5 5 8 6 6 6 4 6 5 5 3 4 6 6 5 6 4 7 7 6 10 10 13 13 12 11 11 10
17 16 16 10 15 16 18 14 13 16 7 14 11 7 5 4 4 8 6 5 8 7 7 6 6 7 6 7 6 5 5 7 7 8 6 6 8 6 10 12 12 9 12 13 13 12 13 11 10
17 15 14 5 6 15 18 17 8 14 18 11 10 10 9 8 7 7 7 6 8 8 6 7 7 8 9 8 5 6 6 7 5 6 7 8 9 10 11 13 12 13 14 15 14 13 13 13 11
14 15 18 14 9 11 16 10 4 12 3 9 10 9 11 8 8 11 11 10 7 7 8 4 4 4 5 5 4 4 4 6 7 7 9 10 10 11 12 13 13 13 15 16 15 15 15 17 14
18 17 11 14 10 11 13 16 10 4 3 11 9 6 6 12 7 7 8 9 9 9 8 7 5 7 7 7 7 7 6 5 7 10 10 8 11 13 13 15 17 15 15 15 17 17 16 17 16
Wind_Direction
295 302 261 277 240 230 248 239 258 296 351 23 16 358 350 27 37 53 78 95 115 135 149 151 142 140 146 148 150 147 146 145 143 138 136 134 132 129 129 128 128 130 129 124 122 118 114 108 101
304 304 270 270 244 250 234 245 255 54 76 47 15 326 309 70 34 66 62 101 122 137 148 156 144 140 144 148 149 148 147 145 143 138 136 134 135 134 133 129 129 135 130 121 119 118 111 106 99
278 273 285 234 247 246 253 21 1 67 82 80 12 25 332 23 45 17 37 45 123 143 159 153 150 140 138 142 142 148 144 144 142 139 140 141 141 141 138 139 138 146 137 132 125 116 116 117 109
274 255 236 256 230 250 255 301 307 2 27 98 278 319 95 66 46 16 343 298 137 151 165 147 157 143 140 140 140 139 139 141 144 144 147 150 148 146 144 147 149 154 153 157 149 151 169 162 139
239 270 255 247 240 239 275 310 322 310 307 90 148 257 127 82 38 21 330 239 222 149 166 155 159 152 147 144 140 138 135 138 146 149 153 154 152 151 154 154 160 171 167 174 169 176 192 192 194
258 239 253 252 242 256 235 286 278 252 277 262 30 256 67 60 24 7 357 276 198 145 146 151 155 158 152 145 141 136 137 140 145 148 154 156 154 159 161 163 170 184 183 192 190 182 195 200 197
249 255 244 248 263 231 262 194 234 260 276 24 344 119 80 37 7 328 77 286 190 142 132 144 162 161 152 144 140 139 140 141 142 146 150 153 155 160 167 172 184 183 194 203 209 194 200 206 205
230 262 268 267 255 256 202 249 297 203 243 273 309 266 6 25 340 326 70 251 210 153 132 143 161 174 170 155 140 142 145 145 146 149 149 152 161 168 182 185 202 202 201 205 214 211 207 211 215
230 234 243 251 264 276 276 180 221 241 231 228 263 298 329 32 343 339 10 201 208 165 135 147 165 173 176 166 154 144 152 153 152 155 160 157 193 186 198 206 214 200 209 213 218 221 213 215 223
234 240 239 239 247 259 276 270 210 204 216 256 206 259 339 19 349 333 333 98 274 162 153 144 162 172 178 178 151 171 170 176 182 183 176 198 209 199 201 199 204 196 203 211 220 225 224 230 252
235 245 250 253 245 254 253 270 158 202 213 256 222 224 234 35 344 330 333 81 345 324 169 147 157 161 181 200 149 172 180 180 186 193 182 191 211 225 203 192 178 185 203 218 211 216 228 233 228
246 242 248 253 268 274 262 265 168 220 258 209 278 236 109 48 338 347 338 9 66 345 246 138 152 158 180 191 162 168 186 184 184 190 186 188 203 217 220 183 182 193 196 203 224 208 208 213 217
244 249 252 251 248 263 275 269 266 190 233 191 236 266 204 171 277 339 340 37 33 8 349 12 140 122 129 19 15 199 177 179 190 182 189 192 191 217 204 235 200 179 200 189 200 216 202 213 212
268 260 258 257 255 254 258 265 266 242 190 210 201 237 256 204 196 265 317 54 34 27 358 355 350 141 157 221 281 337 39 152 178 179 181 190 197 199 210 179 240 252 225 193 190 199 205 219 220
270 272 273 270 254 269 266 257 258 262 216 215 208 198 234 256 203 204 226 108 66 75 11 9 338 68 139 214 213 220 333 328 328 201 161 183 200 198 198 185 204 230 242 237 239 218 205 245 265
259 270 257 253 255 250 259 252 249 260 266 260 253 214 232 228 249 201 211 112 98 76 68 347 6 354 170 168 249 211 210 263 199 293 306 184 193 207 211 224 209 220 223 212 192 209 222 220 237
253 254 254 253 248 251 230 247 250 253 262 256 240 245 206 259 233 178 139 125 90 106 143 148 36 1 346 98 224 206 227 219 222 184 215 236 188 188 197 214 250 225 225 223 199 209 187 216 242
254 240 235 245 253 246 233 238 235 234 244 254 255 226 214 242 252 150 115 112 124 119 104 150 152 137 263 244 178 178 201 222 231 227 192 229 201 194 190 217 234 243 212 229 206 210 221 204 203
260 276 287 291 298 263 247 264 277 278 265 243 249 218 202 225 266 162 138 131 148 146 165 163 131 249 222 239 159 151 210 197 197 258 219 219 200 195 194 198 224 253 218 212 225 290 240 231 204
304 293 285 281 278 283 280 244 252 259 267 258 222 220 232 220 194 168 148 156 142 192 276 135 118 100 314 359 312 148 152 109 26 324 306 236 234 188 199 206 205 217 202 218 211 220 231 248 219
262 265 272 278 277 275 253 265 266 261 264 264 242 205 213 207 188 191 175 166 166 183 188 231 136 148 147 244 305 326 22 18 275 256 250 243 210 222 223 195 201 204 194 221 218 207 223 263 220
270 272 279 269 268 270 279 270 260 253 229 230 236 234 212 232 209 191 185 149 188 194 176 185 84 162 149 142 82 338 173 240 215 226 229 262 223 224 213 217 202 194 191 223 236 213 222 243 233
268 292 285 295 291 281 263 266 265 268 266 248 210 215 221 211 244 151 137 171 163 180 201 171 177 209 48 15 339 323 281 274 307 341 315 291 284 250 210 212 194 188 207 236 228 224 212 224 224
296 297 284 279 265 261 261 258 265 261 263 265 176 193 182 210 154 165 171 176 176 202 198 187 181 213 197 212 231 234 249 279 296 300 305 303 291 294 271 223 201 200 209 223 229 225 241 220 221
256 244 260 250 239 248 259 263 246 263 223 202 141 156 176 180 161 169 191 193 205 206 196 179 200 217 191 209 214 229 236 238 231 239 242 265 278 290 286 278 217 212 214 222 222 232 239 218 209
252 237 263 290 286 287 325 283 275 347 196 152 147 165 170 185 199 211 191 186 257 263 230 187 195 208 210 236 244 227 244 268 269 278 262 247 251 262 292 304 265 225 216 219 222 229 239 216 217
261 249 242 297 295 274 267 241 272 287 223 150 149 159 196 225 216 225 182 211 230 217 215 221 213 221 221 231 228 238 220 228 242 247 259 268 261 263 267 272 273 262 223 233 219 231 233 214 205
247 262 274 226 278 278 282 280 283 320 215 177 190 200 181 193 218 258 275 260 240 240 212 206 214 227 221 222 224 239 239 241 269 283 270 273 276 278 270 269 273 270 257 232 226 227 229 213 215
245 242 260 284 221 238 262 269 254 332 273 232 189 177 195 198 231 241 240 247 247 237 253 250 228 243 251 232 227 250 263 286 284 260 270 266 266 260 262 269 252 261 266 231 227 223 226 221 210
230 267 263 235 239 255 298 282 184 126 306 295 288 190 219 230 242 269 272 261 268 257 249 246 223 225 225 229 233 231 218 235 258 272 267 258 267 269 268 263 264 254 250 239 225 223 220 218 206